Terminal Aerodrome Forecast
Issued by NWS

Home | Current Version | Previous Version | Text Only | Print | Product List | Glossary On
Versions: 1 2 3 4 5 6 7 8 9 10 11 12 13 14 15
563
FTUS46 KSEW 042329
TAFBLI
TAF
KBLI 042329Z 0500/0524 29007KT P6SM SCT250
     FM050300 06004KT P6SM SCT050 SCT250
     FM050600 16004KT P6SM SCT020 BKN045 OVC070
     FM051200 08008KT 5SM -SHSN SCT020 OVC035
     FM051800 06012G20KT P6SM -SN BKN025 BKN050
     FM052200 05012G25KT P6SM BKN050=

USA.gov is the U.S. government's official web portal to all federal, state and local government web resources and services.